DMSP 5D-2 F13 DEB, 40462

Orbit data source: Space-Track

DMSP 5D-2 F13 DEB, 40462 is space debris in SSO originally from a launch on Fri, 24 Mar 1995 UTC launched from the Air Force Western Test Range (AFWTR). Debris objects in space refer to the collection of defunct objects orbiting the Earth. Examples of debris include non-operational satellites, rocket bodies, and fragments generated from explosions, collisions, or faulty payload assembly.

Loading next visibility...
Identifier
40462, 1995-015BE
Orbit
SSO
Country
Flag of USUS
Related business
Manufacturer
Unknown
Mission
Spacecraft
Bus & Motor
Unknown
Mass
Unknown
Launch date (UTC)
1995-03-24 (31 years ago)
Launch vehicle
Unknown
Launch site
Air Force Western Test Range (AFWTR)
Object type
Payload
Rocket body
Debris
Shape & HBR
Unknown shape, 0.1 m
Radar Cross Section
Small (<0.1 m²)

Expand to show TLE details & history
Last TLE update: 21 hours ago

TLE from 21 hours ago
0 DMSP 5D-2 F13 DEB
1 40462U 95015BE  25297.04042459  .00013885  00000-0  42635-2 0  9996
2 40462  98.9498 326.4084 0033245 349.5980  10.4516 14.41394243547702
Epoch: 2025-10-24T00:58Z
TLE epoch observation values (Epoch: 2025-10-24T00:58:12.684Z)
Latitude
-0.00002°
Longitude
-80.83548°
Altitude
733.512 km
Speed
7.501 km/s
True Right ascension
21h 45m 38s
True Declination
0° 00' 00"
Sunlit
Object was in full shadow at epoch
Visualization orbit readout
Latitude
Unknown
Longitude
Unknown
Altitude
Unknown
Speed
Unknown
Apparent Right ascension
Unknown
Apparent Declination
Unknown
Sunlit
N/A
Visualization observer readout
Local Sidereal Time
16:52:06
Azimuth
Unknown
Elevation
Unknown
Doppler factor
Unknown
Orbital elements
Apogee altitude
774.738 km
Perigee altitude
727.336 km
Semi-major axis
7,129.174 km
Eccentricity
0.00332
Inclination
98.9498°
RAAN
326.4084°
Arg. of periapsis
349.598°
True anomaly
10.52099°
Mean anomaly
10.4516°
Eccentric anomaly
10.48627°
Mean motion
3.60566 °/min
Orbital period
99.84 mins
BSTAR
0.0042635
Loading maneuver chart data...
Computing Atmospheric mass density...

Documentation

Showing up to 5 results
|